Regional Weather Roundup
Issued by NWS

Home | Current Version | Previous Version | Graphics & Text | Print | Product List | Glossary On
Versions: 1 2 3 4 5 6 7 8 9 10 11 12 13 14 15 16 17 18 19 20 21 22 23 24 25 26 27 28 29 30 31 32 33 34 35 36 37 38 39 40 41 42 43 44 45 46 47 48 49 50
000
ASUS45 KSLC 250410
RWRUT

UTAH REGIONAL WEATHER ROUNDUP
NATIONAL WEATHER SERVICE SALT LAKE CITY UT
1000 PM MDT FRI APR 24 2015

UTZ001>011-023>025-250500-

NORTHERN UTAH

CITY           SKY/WX    TMP DP  RH WIND       PRES   REMARKS
BRIGHAM CITY   CLOUDY    47  45  90 SE8       29.75R
HILL AFB       LGT RAIN  46  45  99 S5        29.77R
LOGAN          RAIN      46  42  86 SE6       29.75R FOG
OGDEN          LGT RAIN  47  44  90 S6        29.76R
PROVO AIRPORT  CLOUDY    48  43  81 W9        29.79R
SALT LAKE CITY RAIN      49  46  90 NW9       29.78R
VERNAL         MOCLDY    54  31  41 W7        29.73R
WENDOVER       MOCLDY    48  30  49 NW12G17   29.80R
HEBER CITY     MIX PCPN  43  41  93 W6        29.77S
WEST JORDAN    CLOUDY    48  46  93 S5        29.78R

$$

UTZ012>022-026-027-250500-

SOUTHERN/CENTRAL UTAH

CITY           SKY/WX    TMP DP  RH WIND       PRES   REMARKS
BLANDING       CLEAR     51  25  35 W6        29.92R
BRYCE CANYON   CLOUDY    42  31  64 CALM      29.92R
CEDAR CITY     CLOUDY    45  41  86 SW9       29.85S
DELTA          CLOUDY    48  44  87 W8        29.81R
HANKSVILLE     MOCLDY    59  30  33 SW6       29.76R
MILFORD        CLOUDY    48  30  49 S12       29.83R
MOAB/CYNLANDS  PTCLDY    58  29  33 SW8       29.73R
PRICE          CLOUDY    52  32  46 NW12      29.77R
ST GEORGE      CLOUDY    57  48  72 E8        29.82S
KANAB          MOCLDY    55  34  44 S12       29.89R

$$

REGIONAL REPORTS     COLORADO/ARIZONA

CITY           SKY/WX    TMP DP  RH WIND       PRES   REMARKS
CRAIG, CO      CLOUDY    45  32  60 CALM      29.77R
GRAND JUNCTION CLOUDY    55  32  41 S15G26    29.75R
RIFLE          PTCLDY    44  33  65 CALM      29.80R
MONTROSE       PTCLDY    46  34  62 E7        29.85R
CORTEZ         CLOUDY    52  28  39 SW10      29.88R
PAGE, AZ       MOCLDY    63  33  32 SW9       29.81R
GRAND CANYON   PTCLDY    45  33  63 S8        29.97R
KINGMAN        MOCLDY    61  38  42 S15       29.87R
FLAGSTAFF      LGT RAIN  41  40  96 SW14      30.00R

$$

REGIONAL REPORTS    NEVADA/IDAHO/WYOMING

CITY           SKY/WX    TMP DP  RH WIND       PRES   REMARKS
LAS VEGAS, NV  CLOUDY    68  38  33 S22G29    29.71R
ELY            PTCLDY    37  35  92 W5        29.84R WCI  33
ELKO           CLOUDY    42  36  79 W5        29.84R
POCATELLO, ID  CLOUDY    46  37  71 SW13      29.74R
BURLEY         CLOUDY    45  35  68 SW14      29.75R
EVANSTON, WY   LGT RAIN  39  38  96 SW9       29.77R WCI  33
ROCK SPRINGS   CLOUDY    40  35  83 SW8       29.78R WCI  34
KEMMERER       CLOUDY    37  36  93 SW5       29.77S WCI  34

$$



USA.gov is the U.S. government's official web portal to all federal, state and local government web resources and services.